GW3210 Weather Reports


time (UTC)temp
F
wind
direction
speed
knots
gust
knots
rain 1hr
in
rain 24hr
in
rain mn
in
humidity
%
barometer
mb
20260509222315 79 315 5.2 7.8 0.00 0.00 0.00 33 1018.6
20260509221316 78 270 3.5 6.1 0.00 0.00 0.00 32 1018.7
20260509220315 78 270 3.5 7.8 0.00 0.00 0.00 32 1018.7
20260509215336 78 293 3.5 5.2 0.00 0.00 0.00 32 1018.8
20260509214315 77 0 3.5 6.1 0.00 0.00 0.00 35 1019.0
20260509213316 77 315 7.0 9.6 0.00 0.00 0.00 34 1019.2
20260509212315 77 338 5.2 7.8 0.00 0.00 0.00 35 1019.3
20260509211315 76 293 4.3 6.1 0.00 0.00 0.00 35 1019.3
20260509210336 76 315 4.3 7.8 0.00 0.00 0.00 33 1019.3
20260509205315 76 293 4.3 7.0 0.00 0.00 0.00 36 1019.4
20260509204316 75 338 4.3 7.0 0.00 0.00 0.00 36 1019.8
20260509203316 75 0 5.2 7.8 0.00 0.00 0.00 36 1019.9
20260509202316 75 338 4.3 7.0 0.00 0.00 0.00 36 1020.1
20260509201316 75 270 3.5 6.1 0.00 0.00 0.00 35 1020.1
20260509200317 75 293 3.5 7.0 0.00 0.00 0.00 34 1020.2
20260509195338 75 315 2.6 4.3 0.00 0.00 0.00 37 1020.4
20260509194317 74 315 3.5 6.1 0.00 0.00 0.00 37 1020.4
20260509193317 73 248 3.5 6.1 0.00 0.00 0.00 38 1020.7
20260509192318 72 0 4.3 7.8 0.00 0.00 0.00 42 1020.7
20260509191315 71 293 1.7 5.2 0.00 0.00 0.00 40 1020.9
20260509190317 71 270 6.1 7.8 0.00 0.00 0.00 42 1021.1
20260509185338 71 338 2.6 7.0 0.00 0.00 0.00 43 1021.1
20260509184317 70 248 2.6 5.2 0.00 0.00 0.00 43 1021.3
20260509183317 69 293 2.6 6.1 0.00 0.00 0.00 47 1021.4
20260509182317 68 293 1.7 4.3 0.00 0.00 0.00 48 1021.5
20260509181338 67 315 4.3 6.1 0.00 0.00 0.00 50 1021.4
20260509180337 66 248 2.6 3.5 0.00 0.00 0.00 50 1021.4
20260509175337 65 293 2.6 3.5 0.00 0.00 0.00 52 1021.6
20260509174317 65 315 1.7 2.6 0.00 0.00 0.00 55 1021.8
20260509173317 63 270 0.9 2.6 0.00 0.00 0.00 54 1021.8
20260509172317 62 338 3.5 4.3 0.00 0.00 0.00 59 1022.0
20260509171317 61 270 2.6 6.1 0.00 0.00 0.00 59 1022.1
20260509170317 60 338 2.6 4.3 0.00 0.00 0.00 62 1022.0
20260509165317 58 270 2.6 5.2 0.00 0.00 0.00 63 1022.2
20260509164338 57 315 2.6 4.3 0.00 0.00 0.00 64 1022.3
20260509163317 57 293 0.9 2.6 0.00 0.00 0.00 65 1022.3
20260509162317 56 293 2.6 3.5 0.00 0.00 0.00 65 1022.5
20260509161317 55 315 1.7 3.5 0.00 0.00 0.00 66 1022.5
20260509160317 55 68 0.9 0.9 0.00 0.00 0.00 67 1022.5
20260509155317 54 23 0.9 1.7 0.00 0.00 0.00 69 1022.4
20260509154337 53 315 1.7 2.6 0.00 0.00 0.00 69 1022.4
20260509153316 53 0 0.9 2.6 0.00 0.00 0.00 69 1022.6
20260509152317 52 338 1.7 2.6 0.00 0.00 0.00 70 1022.8
20260509151316 52 293 1.7 2.6 0.00 0.00 0.00 70 1023.1
20260509150337 52 0 2.6 3.5 0.00 0.00 0.00 72 1023.1
20260509145317 51 113 0.9 0.9 0.00 0.00 0.00 74 1023.0
20260509144317 51 158 0.9 1.7 0.00 0.00 0.00 76 1022.9
20260509143316 50 0.0 0.9 0.00 0.00 0.00 78 1022.9
20260509142337 50 158 0.9 0.9 0.00 0.00 0.00 81 1022.8
20260509141317 50 158 1.7 2.6 0.00 0.00 0.00 81 1022.7
20260509140317 49 158 0.9 1.7 0.00 0.00 0.00 82 1022.8
20260509135317 49 158 1.7 2.6 0.00 0.00 0.00 82 1022.7
20260509134317 48 135 2.6 3.5 0.00 0.00 0.00 83 1022.7
20260509133317 47 158 2.6 2.6 0.00 0.00 0.00 82 1022.7
20260509132317 47 180 2.6 2.6 0.00 0.00 0.00 78 1022.6
20260509131316 47 203 0.9 1.7 0.00 0.00 0.00 76 1022.6
20260509130337 47 203 1.7 1.7 0.00 0.00 0.00 74 1022.7
20260509125316 47 0.0 0.0 0.00 0.00 0.00 73 1022.7
20260509124316 47 0.0 0.0 0.00 0.00 0.00 72 1022.9
20260509123316 47 0.0 0.0 0.00 0.00 0.00 72 1022.9
20260509122317 47 0.0 0.0 0.00 0.00 0.00 71 1022.9
20260509121316 47 0.0 0.0 0.00 0.00 0.00 69 1022.9
20260509120316 47 0.0 0.0 0.00 0.00 0.00 69 1022.8
20260509115337 48 0.0 0.0 0.00 0.00 0.00 68 1023.0
20260509114337 48 0.0 0.0 0.00 0.00 0.00 68 1023.0
20260509113316 48 0.0 0.0 0.00 0.00 0.00 68 1023.2
20260509112317 49 0.0 0.0 0.00 0.00 0.00 68 1023.3
20260509111316 49 270 0.9 1.7 0.00 0.00 0.00 68 1023.4
20260509110358 49 270 0.9 0.9 0.00 0.00 0.00 67 1023.4
20260509105316 49 270 1.7 1.7 0.00 0.00 0.00 67 1023.5
20260509104316 50 270 0.9 1.7 0.00 0.00 0.00 66 1023.4
20260509103317 50 270 0.9 0.9 0.00 0.00 0.00 66 1023.4
20260509102317 50 270 0.9 1.7 0.00 0.00 0.00 66 1023.4
20260509101317 50 270 1.7 1.7 0.00 0.00 0.00 66 1023.3
20260509100316 50 270 1.7 1.7 0.00 0.00 0.00 66 1023.3
20260509095316 50 270 0.9 1.7 0.00 0.00 0.00 66 1023.4
20260509094316 51 293 0.9 1.7 0.00 0.00 0.00 65 1023.4
20260509093316 51 293 0.9 1.7 0.00 0.00 0.00 65 1023.5
20260509092316 51 0.0 0.9 0.00 0.00 0.00 65 1023.6
20260509091337 51 0.0 0.0 0.00 0.00 0.00 64 1023.7
20260509090316 52 0.0 0.0 0.00 0.00 0.00 64 1023.8
20260509085316 52 0.0 0.0 0.00 0.00 0.00 63 1023.8
20260509084316 53 293 0.9 0.9 0.00 0.00 0.00 63 1024.0
20260509083315 53 293 1.7 1.7 0.00 0.00 0.00 63 1024.1
20260509082316 53 293 1.7 2.6 0.00 0.00 0.00 62 1024.2
20260509081337 53 293 2.6 5.2 0.00 0.00 0.00 62 1024.1
20260509080316 54 293 0.9 1.7 0.00 0.00 0.00 61 1024.2
20260509075316 54 293 1.7 2.6 0.00 0.00 0.00 61 1024.2
20260509074316 54 293 1.7 4.3 0.00 0.00 0.00 60 1024.3
20260509073316 55 293 2.6 3.5 0.00 0.00 0.00 60 1024.3
20260509072317 55 293 2.6 3.5 0.00 0.00 0.00 59 1024.3
20260509071316 55 293 2.6 3.5 0.00 0.00 0.00 59 1024.4
20260509070316 56 293 1.7 2.6 0.00 0.00 0.00 58 1024.3
20260509065317 56 293 2.6 3.5 0.00 0.00 0.00 57 1024.3
20260509064317 56 293 2.6 3.5 0.00 0.00 0.00 57 1024.4
20260509063317 56 293 1.7 3.5 0.00 0.00 0.00 56 1024.3
20260509062316 57 270 2.6 3.5 0.00 0.00 0.00 55 1024.3
20260509061317 57 293 2.6 3.5 0.00 0.00 0.00 54 1024.1
20260509060317 57 270 1.7 3.5 0.00 0.00 0.00 54 1024.0
20260509055317 58 270 2.6 3.5 0.00 0.00 0.00 53 1024.0
20260509054337 58 270 2.6 3.5 0.00 0.00 0.00 52 1023.8
20260509053337 58 315 2.6 4.3 0.00 0.00 0.00 52 1023.8
20260509052317 59 315 5.2 8.7 0.00 0.00 0.00 52 1023.9
20260509051316 59 293 2.6 4.3 0.00 0.00 0.00 52 1023.9
20260509050337 59 338 3.5 5.2 0.00 0.00 0.00 52 1023.9
20260509045316 59 315 2.6 6.1 0.00 0.00 0.00 52 1023.8
20260509044316 59 338 3.5 4.3 0.00 0.00 0.00 52 1023.7
20260509043317 59 0 7.0 8.7 0.00 0.00 0.00 51 1023.8
20260509042317 60 315 2.6 4.3 0.00 0.00 0.00 51 1023.6
20260509041337 60 338 3.5 7.0 0.00 0.00 0.00 50 1023.5
20260509040316 60 315 4.3 7.8 0.00 0.00 0.00 50 1023.5
20260509035337 61 315 7.0 9.6 0.00 0.00 0.00 49 1023.4
20260509034317 61 315 4.3 7.0 0.00 0.00 0.00 47 1023.2
20260509033316 62 315 2.6 4.3 0.00 0.00 0.00 46 1023.1
20260509032316 62 0 4.3 7.0 0.00 0.00 0.00 46 1023.1
20260509031316 62 338 2.6 4.3 0.00 0.00 0.00 45 1023.0
20260509030316 62 315 2.6 3.5 0.00 0.00 0.00 44 1023.0
20260509025336 63 338 3.5 5.2 0.00 0.00 0.00 44 1023.0
20260509024316 63 338 3.5 5.2 0.00 0.00 0.00 44 1022.9
20260509023337 64 338 5.2 8.7 0.00 0.00 0.00 42 1022.9
20260509022316 64 23 2.6 7.0 0.00 0.00 0.00 42 1022.9
20260509021316 64 293 4.3 7.0 0.00 0.00 0.00 41 1022.8
20260509020317 65 0 2.6 3.5 0.00 0.00 0.00 41 1022.9
20260509015316 65 293 3.5 4.3 0.00 0.00 0.00 39 1022.9
20260509014337 66 315 1.7 2.6 0.00 0.00 0.00 38 1022.8
20260509013357 66 0 1.7 3.5 0.00 0.00 0.00 38 1022.9
20260509012316 68 0 2.6 4.3 0.00 0.00 0.00 36 1023.0
20260509011316 68 293 2.6 4.3 0.00 0.00 0.00 35 1023.0
20260509010316 68 293 1.7 3.5 0.00 0.00 0.00 34 1023.1
20260509005316 68 338 4.3 5.2 0.00 0.00 0.00 36 1023.0
20260509004316 68 0 4.3 8.7 0.00 0.00 0.00 36 1023.0
20260509003316 67 270 4.3 6.1 0.00 0.00 0.00 34 1023.1
20260509002316 69 338 4.3 7.8 0.00 0.00 0.00 33 1023.2
20260509001316 68 315 2.6 4.3 0.00 0.00 0.00 33 1023.2
20260509000318 70 338 3.5 5.2 0.00 0.00 0.00 32 1023.3
20260508235357 70 0 4.3 7.0 0.00 0.00 0.00 32 1023.2
20260508234316 70 248 4.3 7.0 0.00 0.00 0.00 32 1023.2
20260508233316 69 315 4.3 7.0 0.00 0.00 0.00 33 1023.3
20260508232315 69 203 1.7 2.6 0.00 0.00 0.00 32 1023.3
20260508231316 68 293 4.3 6.1 0.00 0.00 0.00 33 1023.3
20260508230316 69 293 2.6 5.2 0.00 0.00 0.00 32 1023.4
20260508225336 69 293 5.2 7.0 0.00 0.00 0.00 33 1023.5
20260508224316 68 338 1.7 2.6 0.00 0.00 0.00 34 1023.5
20260508223316 67 203 3.5 5.2 0.00 0.00 0.00 33 1023.5